Lewiston, WA

8:26 AM PST on December 14, 2017 (GMT -0800)
Lewiston-Nez Perce County

Weather History for KLWS - November, 2010

Change the Weather History Date:

Sunday, November 14, 2010

  Actual Average Record
Temperature  
Mean Temperature 41 °F 42 °F  
Max Temperature 45 °F 49 °F 68 °F (1999)
Min Temperature 37 °F 35 °F -3 °F (1955)
Degree Days  
Heating Degree Days 24 23  
Month to date heating degree days 272 296  
Since 1 July heating degree days 689 821  
Cooling Degree Days 0 0  
Month to date cooling degree days 0 0  
Year to date cooling degree days 713 807  
Moisture  
Dew Point 39 °F    
Average Humidity 93    
Maximum Humidity 100    
Minimum Humidity 85    
Precipitation  
Precipitation 0.10 in 0.04 in 0.84 in (1988)
Month to date precipitation 0.54 0.57  
Year to date precipitation 12.20 10.73  
Snow  
Snow 0.00 in 0.10 in 7.30 in (1988)
Month to date snowfall 0.0 0.5  
Since 1 July snowfall 0.0 0.5  
Since 1 September snowfall 0.0 0.5  
Snow Depth 0.00 in    
Sea Level Pressure  
Sea Level Pressure 30.12 in    
Wind  
Wind Speed 1 mph (NE)    
Max Wind Speed 10 mph    
Max Gust Speed 12 mph    
Visibility 4 miles    
Events Fog , Rain    
T = Trace of Precipitation, MM = Missing Value Source: NWS Daily Summary

Daily Weather History Graph

Daily Weather History Graph

Search for Another Location

Airport or City:

Trip Planner

Search our weather history database for the weather conditions in past years. The results will help you decide how hot, cold, wet, or windy it might be!

Date:

Astronomy

Nov. 14, 2010 Rise Set
Actual Time 6:48 AM PST 4:16 PM PST
Civil Twilight 6:15 AM PST 4:48 PM PST
Nautical Twilight 5:39 AM PST 5:25 PM PST
Astronomical Twilight 5:03 AM PST 6:00 PM PST
Moon 12:57 PM PST No Moon Set
Length of Visible Light 10h 33m
Length of Day
9h 27m
First Quarter, 61% of the Moon is Illuminated
Nov 14
First Quarter
Nov 21
Full
Nov 28
Last Quarter
Dec 5
New
Dec 13
First Quarter

Hourly Weather History & Observations

Time (PST) Temp. Windchill Dew Point Humidity Pressure Visibility Wind Dir Wind Speed Gust Speed Precip Events Conditions
12:56 AM 39.9 °F - 36.0 °F 86% 30.31 in 9.0 mi Calm Calm - N/A   Overcast
1:56 AM 39.9 °F - 36.0 °F 86% 30.30 in 10.0 mi Calm Calm - N/A   Overcast
2:56 AM 39.9 °F - 36.0 °F 86% 30.29 in 10.0 mi Calm Calm - N/A   Overcast
3:56 AM 39.9 °F - 36.0 °F 86% 30.25 in 10.0 mi Calm Calm - N/A   Overcast
4:07 AM 39.2 °F - 35.6 °F 87% 30.21 in 10.0 mi Calm Calm - 0.00 in Rain Light Rain
4:20 AM 39.2 °F - 37.4 °F 93% 30.21 in 8.0 mi Calm Calm - 0.00 in Rain Light Rain
4:56 AM 39.0 °F - 37.0 °F 93% 30.23 in 6.0 mi Calm Calm - 0.00 in Rain Light Rain
5:56 AM 39.0 °F - 37.0 °F 93% 30.22 in 4.0 mi Calm Calm - 0.05 in Rain Light Rain
6:25 AM 39.2 °F - 37.4 °F 93% 30.19 in 2.0 mi Calm Calm - 0.02 in Rain Light Rain
6:39 AM 39.2 °F - 37.4 °F 93% 30.19 in 1.8 mi Calm Calm - 0.02 in Rain Light Rain
6:46 AM 37.4 °F - 37.4 °F 100% 30.19 in 3.0 mi Calm Calm - 0.03 in Rain Light Rain
6:56 AM 39.0 °F - 37.9 °F 96% 30.22 in 3.0 mi Calm Calm - 0.04 in Rain Light Rain
7:56 AM 39.0 °F - 37.9 °F 96% 30.19 in 3.0 mi Calm Calm - 0.01 in   Overcast
8:56 AM 39.0 °F 36.8 °F 37.9 °F 96% 30.18 in 3.0 mi NNE 3.5 mph - N/A   Overcast
9:04 AM 39.2 °F 37.0 °F 37.4 °F 93% 30.15 in 2.5 mi NNE 3.5 mph - 0.00 in Rain Light Rain
9:23 AM 39.2 °F - 37.4 °F 93% 30.14 in 3.0 mi Calm Calm - 0.00 in   Overcast
9:32 AM 39.2 °F - 37.4 °F 93% 30.14 in 2.5 mi Calm Calm - 0.00 in   Overcast
9:45 AM 39.2 °F - 37.4 °F 93% 30.15 in 3.0 mi Calm Calm - 0.00 in   Overcast
9:56 AM 41.0 °F - 39.0 °F 93% 30.18 in 3.0 mi Calm Calm - 0.00 in   Overcast
10:22 AM 39.2 °F 37.0 °F 39.2 °F 100% 30.15 in 2.5 mi SSE 3.5 mph - N/A   Overcast
10:47 AM 39.2 °F - 39.2 °F 100% 30.14 in 2.0 mi Calm Calm - N/A   Overcast
10:56 AM 41.0 °F - 39.0 °F 93% 30.17 in 2.5 mi Calm Calm - N/A   Overcast
11:07 AM 41.0 °F - 39.2 °F 93% 30.13 in 3.0 mi Calm Calm - N/A   Overcast
11:15 AM 42.8 °F 41.1 °F 39.2 °F 87% 30.13 in 1.5 mi North 3.5 mph - N/A   Overcast
11:17 AM 41.0 °F 39.0 °F 39.2 °F 93% 30.13 in 0.8 mi NW 3.5 mph - N/A   Overcast
11:37 AM 41.0 °F - 39.2 °F 93% 30.12 in 1.0 mi Calm Calm - N/A   Overcast
11:56 AM 41.0 °F - 39.0 °F 93% 30.14 in 0.8 mi Calm Calm - N/A   Overcast
12:11 PM 41.0 °F - 39.2 °F 93% 30.11 in 1.5 mi Calm Calm - N/A   Overcast
12:24 PM 42.8 °F - 39.2 °F 87% 30.12 in 2.5 mi Calm Calm - N/A   Overcast
12:37 PM 42.8 °F - 39.2 °F 87% 30.10 in 1.2 mi Calm Calm - N/A   Overcast
12:49 PM 42.8 °F - 41.0 °F 93% 30.09 in 2.0 mi Calm Calm - N/A   Overcast
12:56 PM 43.0 °F 41.3 °F 39.9 °F 89% 30.12 in 3.0 mi NNE 3.5 mph - N/A   Overcast
1:26 PM 42.8 °F 40.1 °F 41.0 °F 93% 30.09 in 2.5 mi North 4.6 mph - N/A   Overcast
1:36 PM 42.8 °F 41.1 °F 41.0 °F 93% 30.08 in 3.0 mi North 3.5 mph - N/A   Overcast
1:56 PM 44.1 °F 42.5 °F 41.0 °F 89% 30.12 in 3.0 mi NE 3.5 mph - N/A   Overcast
2:24 PM 44.6 °F 43.1 °F 41.0 °F 87% 30.08 in 6.0 mi East 3.5 mph - N/A   Overcast
2:36 PM 44.6 °F 40.7 °F 41.0 °F 87% 30.07 in 10.0 mi East 6.9 mph - N/A   Overcast
2:56 PM 44.1 °F 42.5 °F 41.0 °F 89% 30.09 in 10.0 mi ENE 3.5 mph - N/A   Overcast
3:06 PM 44.6 °F 43.1 °F 39.2 °F 81% 30.07 in 10.0 mi East 3.5 mph - N/A   Overcast
3:56 PM 44.1 °F - 41.0 °F 89% 30.09 in 10.0 mi Calm Calm - N/A   Overcast
4:56 PM 44.1 °F - 41.0 °F 89% 30.08 in 10.0 mi Calm Calm - N/A   Overcast
5:56 PM 42.1 °F - 41.0 °F 96% 30.06 in 4.0 mi Calm Calm - N/A   Mostly Cloudy
6:22 PM 42.8 °F - 39.2 °F 87% 30.03 in 3.0 mi Calm Calm - N/A   Scattered Clouds
6:56 PM 42.1 °F - 39.9 °F 92% 30.05 in 7.0 mi Calm Calm - N/A   Clear
7:34 PM 39.2 °F - 39.2 °F 100% 30.02 in 2.0 mi Calm Calm - N/A   Clear
7:40 PM 39.2 °F - 39.2 °F 100% 30.02 in 1.2 mi Calm Calm - N/A   Clear
7:56 PM 41.0 °F - 39.9 °F 96% 30.06 in 1.2 mi Calm Calm - N/A   Clear
8:04 PM 39.2 °F - 39.2 °F 100% 30.03 in 2.0 mi Calm Calm - N/A   Clear
8:18 PM 39.2 °F 37.0 °F 39.2 °F 100% 30.04 in 3.0 mi Variable 3.5 mph - N/A   Clear
8:56 PM 39.0 °F - 37.9 °F 96% 30.08 in 10.0 mi Calm Calm - N/A   Clear
9:54 PM 37.4 °F 34.9 °F 37.4 °F 100% 30.06 in 1.2 mi West 3.5 mph - N/A   Clear
9:56 PM 37.9 °F - 37.0 °F 97% 30.09 in 0.8 mi Calm Calm - N/A   Mist
10:21 PM 37.4 °F - 37.4 °F 100% 30.05 in 1.2 mi Calm Calm - N/A   Scattered Clouds
10:28 PM 39.2 °F - 37.4 °F 93% 30.05 in 1.8 mi Calm Calm - N/A   Scattered Clouds
10:36 PM 37.4 °F - 37.4 °F 100% 30.05 in 0.8 mi Calm Calm - N/A   Mist
10:56 PM 37.9 °F - 36.0 °F 93% 30.09 in 0.5 mi Calm Calm - N/A Fog Fog
11:04 PM 37.4 °F 33.8 °F 37.4 °F 100% 30.07 in 1.2 mi SSW 4.6 mph - N/A   Partly Cloudy
11:06 PM 39.2 °F 35.0 °F 37.4 °F 93% 30.07 in 2.0 mi South 5.8 mph - N/A   Partly Cloudy
11:15 PM 39.2 °F 37.0 °F 37.4 °F 93% 30.07 in 3.0 mi Variable 3.5 mph - N/A   Clear
11:56 PM 39.0 °F - 37.9 °F 96% 30.08 in 5.0 mi Calm Calm - N/A   Clear